STARLINK-32336, 61004

Orbit data source: Space-Track

STARLINK-32336, 61004 is a payload satellite owned by SpaceX/Seattle (US) in LEO that was launched on Thu, 05 Sep 2024 UTC via an FALCON 9 launch vehicle from the Air Force Eastern Test Range (AFETR). Payload-class satellites include a variety of spacecraft equipped with specific instruments for various scientific and technological missions. These include communications satellites like Starlink; space stations such as the ISS; scientific satellites like the Hubble; Earth observation satellites from companies like Planet Labs, Umbra, and HawkEye 360; GPS; miniature CubeSats for education and research; and military/defense satellites.

Loading next visibility...
Identifier
61004, 2024-158Q
Orbit
LEO
Last TLE update
1 day ago
Origin
Manufacturer
SpaceX/Seattle
Mission
Operational Commercial Communications
Bus & Motor
STARLINK V2M, Unknown motor
Mass
730 kg wet, ~700 kg dry
Launch date (UTC)
2024-09-05 (10 months ago)
Launch vehicle
FALCON 9
Launch site
Air Force Eastern Test Range (AFETR)
Object type
Payload
Rocket body
Debris
Shape & HBR
Box + 2 Pan, 29 m
Radar Cross Section
33.884 m², Large (>1 m²)

Expand to show TLE details & history

TLE from 1 day ago
0 STARLINK-32336
1 61004U 24158Q   25191.19176787 -.00000073  00000-0  96545-5 0  9990
2 61004  53.1603 111.9185 0001335  78.6723 281.4428 15.30193615 48524
Epoch: 2025-07-10T04:36Z
TLE epoch observation values (Epoch: 2025-07-10T04:36:08.743Z)
Latitude
-0.00002°
Longitude
114.52047°
Altitude
475.952 km
Speed
7.629 km/s
True Right ascension
07h 27m 40s
True Declination
0° 00' 00"
Sunlit
Object was in daylight at epoch
Visualization orbit readout
Latitude
51.92678°
Longitude
-143.3375°
Altitude
480.624 km
Speed
7.632 km/s
Apparent Right ascension
12h 34m 36s
Apparent Declination
8° 51' 25"
Sunlit
Object is in daylight
Visualization observer readout
Local Sidereal Time
23:07:27
Azimuth
332.575° NNW
Elevation
-37.222°
Doppler factor
1
Orbital elements
Apogee altitude
476.405 km
Perigee altitude
474.576 km
Semi-major axis
6,853.628 km
Eccentricity
0.00013
Inclination
53.1603°
RAAN
111.9185°
Arg. of periapsis
78.6723°
True anomaly
Unknown
Mean anomaly
281.4428°
Eccentric anomaly
Unknown
Mean motion
3.82527 °/min
Orbital period
94.11 mins
BSTAR
0.0000096545
Loading maneuver chart data...
Loading SW <> Apogee altitude chart data...
Loading historical data...
Loading historical data...
Loading historical data...
Loading historical data...
Loading historical data...
Loading historical data...
Loading historical data...

STARLINK-32336 Visibility forecast

Observer location: undefined°, undefined°

Span
Click to sort rows by Start time (UTC) header in descending order
Start Az.
Max El. time (UTC)
Max El. Az.
Max El.
End time (UTC)
End Az.
4 mins2025-07-11 19:56:30.728Z168.79° S2025-07-11 19:58:30.728Z134.288° SE16.678°2025-07-11 20:00:30.728Z95.371° ESE
5 mins2025-07-11 21:34:30.728Z256.058° W2025-07-11 21:36:30.728Z331.602° NNW38.61°2025-07-11 21:39:30.728Z40.275° NE
4 mins2025-07-12 02:31:30.728Z347.697° N2025-07-12 02:33:30.728Z31.986° NE20.305°2025-07-12 02:35:30.728Z70.759° E
5 mins2025-07-12 04:09:30.728Z297.182° NW2025-07-12 04:11:30.728Z214.429° SW41.646°2025-07-12 04:14:30.728Z143.479° SSE
|